OAS310 MPTO-SKCL

Flight info

Callsign OAS310
Flight time 1h 5m
Altitude 31000
Route DANDA DCT IRATA UN420 BUSMO UW90 ASIKO ASIKO1C
Aircraft B738/M-SDE2E3FGHIRWXY/LB1

Departure

Time 2026-04-24 21:30
Airport Tocumen International Airport (MPTO)

Arrival

Time 2026-04-24 22:35
Airport Alfonso Bonilla Aragon International Airport (SKCL)
Time Latitude Longitude Altitude Speed Heading
2026-04-24 20:44 9.06758 -79.38490 29 ft 0 kts 318°
2026-04-24 21:18 9.06744 -79.38475 29 ft 4 kts 312°
2026-04-24 21:18 9.06726 -79.38456 29 ft 4 kts 317°
2026-04-24 21:18 9.06705 -79.38438 29 ft 4 kts 323°
2026-04-24 21:18 9.06698 -79.38433 29 ft 0 kts 323°
2026-04-24 21:24 9.06700 -79.38433 29 ft 1 kts 343°
2026-04-24 21:25 9.06711 -79.38428 29 ft 4 kts 18°
2026-04-24 21:25 9.06760 -79.38410 29 ft 10 kts 30°
2026-04-24 21:25 9.06794 -79.38390 29 ft 2 kts 27°
2026-04-24 21:25 9.06800 -79.38387 29 ft 0 kts 27°
2026-04-24 21:26 9.06808 -79.38383 29 ft 4 kts 27°
2026-04-24 21:26 9.06839 -79.38364 29 ft 6 kts 37°
2026-04-24 21:27 9.06856 -79.38329 29 ft 6 kts 59°
2026-04-24 21:27 9.06876 -79.38295 29 ft 6 kts 59°
2026-04-24 21:27 9.06898 -79.38262 29 ft 6 kts 53°
2026-04-24 21:27 9.06931 -79.38223 29 ft 9 kts 46°
2026-04-24 21:28 9.06991 -79.38176 29 ft 12 kts 33°
2026-04-24 21:28 9.07078 -79.38132 29 ft 16 kts 28°
2026-04-24 21:28 9.07181 -79.38068 29 ft 19 kts 38°
2026-04-24 21:28 9.07173 -79.37949 29 ft 20 kts 124°
2026-04-24 21:29 9.07083 -79.37941 29 ft 16 kts 211°
2026-04-24 21:29 9.06767 -79.38120 28 ft 94 kts 209°
2026-04-24 21:29 9.05974 -79.38574 41 ft 165 kts 210°
2026-04-24 21:29 9.04872 -79.39204 554 ft 193 kts 205°
2026-04-24 21:30 9.03539 -79.39514 1292 ft 204 kts 180°
2026-04-24 21:30 9.02089 -79.39409 2078 ft 212 kts 177°
2026-04-24 21:30 9.00603 -79.39311 2927 ft 216 kts 178°
2026-04-24 21:30 8.99089 -79.39225 3717 ft 221 kts 177°
2026-04-24 21:31 8.97481 -79.39147 4016 ft 243 kts 178°
2026-04-24 21:31 8.95699 -79.39076 4307 ft 267 kts 178°
2026-04-24 21:31 8.93814 -79.39012 5052 ft 273 kts 178°
2026-04-24 21:31 8.91919 -79.38956 5980 ft 273 kts 179°
2026-04-24 21:32 8.90001 -79.38906 6733 ft 278 kts 180°
2026-04-24 21:32 8.88070 -79.38860 7564 ft 278 kts 180°
2026-04-24 21:32 8.86139 -79.38818 8305 ft 284 kts 180°
2026-04-24 21:32 8.84128 -79.38776 9088 ft 287 kts 180°
2026-04-24 21:33 8.82144 -79.38735 9843 ft 291 kts 180°
2026-04-24 21:33 8.80098 -79.38694 10422 ft 301 kts 180°
2026-04-24 21:33 8.77915 -79.38653 10588 ft 325 kts 180°
2026-04-24 21:33 8.75578 -79.38608 10813 ft 345 kts 180°
2026-04-24 21:34 8.73138 -79.38560 11284 ft 354 kts 180°
2026-04-24 21:34 8.70664 -79.38510 11916 ft 358 kts 180°
2026-04-24 21:34 8.68158 -79.38460 12559 ft 362 kts 180°
2026-04-24 21:34 8.65628 -79.38410 13190 ft 365 kts 180°
2026-04-24 21:35 8.63072 -79.38360 13784 ft 370 kts 179°
2026-04-24 21:35 8.60495 -79.38078 14310 ft 375 kts 168°
2026-04-24 21:35 8.57990 -79.37295 14878 ft 379 kts 158°
2026-04-24 21:35 8.55604 -79.36115 15435 ft 382 kts 154°
2026-04-24 21:36 8.53269 -79.34875 15946 ft 386 kts 153°
2026-04-24 21:36 8.50887 -79.33591 16454 ft 390 kts 153°
2026-04-24 21:36 8.48475 -79.32291 16949 ft 394 kts 153°
2026-04-24 21:36 8.46044 -79.30990 17459 ft 397 kts 153°
2026-04-24 21:37 8.43584 -79.29682 17954 ft 401 kts 154°
2026-04-24 21:37 8.41098 -79.28366 18396 ft 404 kts 154°
2026-04-24 21:37 8.38595 -79.27046 18819 ft 407 kts 154°
2026-04-24 21:37 8.36071 -79.25717 19250 ft 410 kts 154°
2026-04-24 21:38 8.33535 -79.24384 19671 ft 412 kts 154°
2026-04-24 21:38 8.30982 -79.23041 20077 ft 415 kts 154°
2026-04-24 21:38 8.28402 -79.21686 20485 ft 418 kts 154°
2026-04-24 21:38 8.25809 -79.20324 20886 ft 421 kts 154°
2026-04-24 21:39 8.23202 -79.18954 21279 ft 424 kts 154°
2026-04-24 21:39 8.20609 -79.17592 21664 ft 427 kts 154°
2026-04-24 21:39 8.17967 -79.16204 22062 ft 429 kts 153°
2026-04-24 21:39 8.15305 -79.14807 22444 ft 432 kts 153°
2026-04-24 21:40 8.12633 -79.13403 22810 ft 434 kts 153°
2026-04-24 21:40 8.09947 -79.11993 23163 ft 437 kts 153°
2026-04-24 21:40 8.07240 -79.10572 23504 ft 440 kts 153°
2026-04-24 21:40 8.04517 -79.09143 23812 ft 442 kts 153°
2026-04-24 21:41 8.01790 -79.07712 24151 ft 442 kts 153°
2026-04-24 21:41 7.99056 -79.06277 24492 ft 443 kts 153°
2026-04-24 21:41 7.96315 -79.04839 24815 ft 444 kts 153°
2026-04-24 21:41 7.93563 -79.03396 25121 ft 446 kts 153°
2026-04-24 21:42 7.90805 -79.01949 25429 ft 447 kts 153°
2026-04-24 21:42 7.88038 -79.00499 25734 ft 448 kts 153°
2026-04-24 21:42 7.85267 -78.99046 26039 ft 450 kts 153°
2026-04-24 21:42 7.82519 -78.97606 26344 ft 451 kts 153°
2026-04-24 21:43 7.79741 -78.96149 26684 ft 450 kts 153°
2026-04-24 21:43 7.76951 -78.94687 27011 ft 451 kts 153°
2026-04-24 21:43 7.74160 -78.93224 27285 ft 453 kts 153°
2026-04-24 21:43 7.71359 -78.91757 27546 ft 454 kts 153°
2026-04-24 21:44 7.68548 -78.90284 27820 ft 455 kts 153°
2026-04-24 21:44 7.65724 -78.88805 28094 ft 457 kts 153°
2026-04-24 21:44 7.62902 -78.87327 28369 ft 458 kts 153°
2026-04-24 21:44 7.60067 -78.85843 28625 ft 459 kts 153°
2026-04-24 21:45 7.57267 -78.84376 28870 ft 460 kts 153°
2026-04-24 21:45 7.54419 -78.82885 29121 ft 461 kts 153°
2026-04-24 21:45 7.51564 -78.81391 29367 ft 462 kts 153°
2026-04-24 21:45 7.48706 -78.79883 29599 ft 464 kts 152°
2026-04-24 21:46 7.45901 -78.78276 29840 ft 465 kts 150°
2026-04-24 21:46 7.43120 -78.76594 30048 ft 466 kts 149°
2026-04-24 21:46 7.40349 -78.74883 30265 ft 466 kts 149°
2026-04-24 21:46 7.37584 -78.73171 30490 ft 466 kts 149°
2026-04-24 21:47 7.34820 -78.71468 30776 ft 465 kts 149°
2026-04-24 21:47 7.32989 -78.70346 30978 ft 463 kts 149°
2026-04-24 21:47 7.29349 -78.68128 31436 ft 460 kts 149°
2026-04-24 21:47 7.26615 -78.66469 31815 ft 456 kts 149°
2026-04-24 21:48 7.23904 -78.64827 32185 ft 453 kts 149°
2026-04-24 21:48 7.21205 -78.63192 32466 ft 452 kts 149°
2026-04-24 21:48 7.18499 -78.61555 32715 ft 452 kts 149°
2026-04-24 21:48 7.15808 -78.59925 33002 ft 451 kts 149°
2026-04-24 21:49 7.13120 -78.58298 33329 ft 449 kts 149°
2026-04-24 21:49 7.10452 -78.56683 33658 ft 447 kts 149°
2026-04-24 21:49 7.07826 -78.55093 33958 ft 445 kts 149°
2026-04-24 21:49 7.05174 -78.53488 34162 ft 445 kts 149°
2026-04-24 21:50 7.02515 -78.51879 34318 ft 447 kts 149°
2026-04-24 21:50 6.99848 -78.50265 34492 ft 448 kts 149°
2026-04-24 21:50 6.97176 -78.48648 34696 ft 447 kts 150°
2026-04-24 21:50 6.94507 -78.47033 34877 ft 448 kts 150°
2026-04-24 21:51 6.91817 -78.45406 34872 ft 452 kts 150°
2026-04-24 21:51 6.86423 -78.42143 34880 ft 451 kts 150°
2026-04-24 21:52 6.81078 -78.38910 34878 ft 446 kts 150°
2026-04-24 21:52 6.75774 -78.35703 34882 ft 444 kts 150°
2026-04-24 21:53 6.70483 -78.32512 34883 ft 443 kts 150°
2026-04-24 21:53 6.65199 -78.29408 34888 ft 442 kts 150°
2026-04-24 21:54 6.59866 -78.26302 34882 ft 442 kts 150°
2026-04-24 21:54 6.54532 -78.23189 34884 ft 443 kts 150°
2026-04-24 21:55 6.49196 -78.20068 34888 ft 444 kts 150°
2026-04-24 21:55 6.43846 -78.16937 34885 ft 445 kts 150°
2026-04-24 21:56 6.38524 -78.13822 34887 ft 446 kts 150°
2026-04-24 21:56 6.33144 -78.10674 34885 ft 447 kts 150°
2026-04-24 21:57 6.27769 -78.07531 34882 ft 447 kts 149°
2026-04-24 21:57 6.22393 -78.04387 34883 ft 447 kts 149°
2026-04-24 21:58 6.17011 -78.01240 34884 ft 447 kts 149°
2026-04-24 21:58 6.11661 -77.98113 34884 ft 447 kts 149°
2026-04-24 21:59 6.06288 -77.94974 34880 ft 446 kts 149°
2026-04-24 21:59 6.00920 -77.91838 34884 ft 446 kts 149°
2026-04-24 22:00 5.95557 -77.88706 34883 ft 445 kts 149°
2026-04-24 22:00 5.90236 -77.85599 34886 ft 445 kts 149°
2026-04-24 22:01 5.84884 -77.82474 34883 ft 444 kts 149°
2026-04-24 22:01 5.79537 -77.79353 34884 ft 444 kts 149°
2026-04-24 22:02 5.74189 -77.76233 34881 ft 444 kts 149°
2026-04-24 22:02 5.68841 -77.73113 34882 ft 444 kts 149°
2026-04-24 22:03 5.63497 -77.69995 34881 ft 444 kts 149°
2026-04-24 22:03 5.58155 -77.66880 34883 ft 444 kts 149°
2026-04-24 22:04 5.52803 -77.63760 34881 ft 444 kts 149°
2026-04-24 22:04 5.47489 -77.60662 34883 ft 444 kts 149°
2026-04-24 22:05 5.42146 -77.57549 34887 ft 445 kts 149°
2026-04-24 22:05 5.36783 -77.54423 34888 ft 445 kts 149°
2026-04-24 22:06 5.31417 -77.51298 34889 ft 445 kts 149°
2026-04-24 22:06 5.26043 -77.48168 34890 ft 446 kts 149°
2026-04-24 22:07 5.20711 -77.45063 34887 ft 446 kts 149°
2026-04-24 22:07 5.15326 -77.41927 35099 ft 448 kts 149°
2026-04-24 22:07 5.12632 -77.40359 35348 ft 447 kts 149°
2026-04-24 22:08 5.09939 -77.38792 35608 ft 445 kts 149°
2026-04-24 22:08 5.07262 -77.37234 35856 ft 444 kts 149°
2026-04-24 22:08 5.04623 -77.35698 36051 ft 444 kts 149°
2026-04-24 22:08 5.01944 -77.34140 36209 ft 445 kts 149°
2026-04-24 22:09 4.99265 -77.32581 36373 ft 445 kts 149°
2026-04-24 22:09 4.96587 -77.31022 36589 ft 445 kts 149°
2026-04-24 22:09 4.93915 -77.29468 36797 ft 444 kts 149°
2026-04-24 22:10 4.89417 -77.26852 36878 ft 448 kts 149°
2026-04-24 22:10 4.84073 -77.23744 36884 ft 445 kts 149°
2026-04-24 22:11 4.78733 -77.20640 36892 ft 442 kts 149°
2026-04-24 22:11 4.73426 -77.17554 36889 ft 439 kts 149°
2026-04-24 22:12 4.68163 -77.14495 36889 ft 436 kts 149°
2026-04-24 22:12 4.62933 -77.11456 36890 ft 433 kts 149°
2026-04-24 22:12 4.60351 -77.09956 36871 ft 422 kts 149°
2026-04-24 22:13 4.57885 -77.08524 36877 ft 408 kts 149°
2026-04-24 22:13 4.55446 -77.07108 36868 ft 393 kts 149°
2026-04-24 22:13 4.53143 -77.05770 36883 ft 384 kts 149°
2026-04-24 22:14 4.48492 -77.03067 36912 ft 391 kts 149°
2026-04-24 22:14 4.43724 -77.00296 36921 ft 400 kts 148°
2026-04-24 22:15 4.38887 -76.97487 36903 ft 402 kts 148°
2026-04-24 22:15 4.34062 -76.94682 36771 ft 393 kts 148°
2026-04-24 22:15 4.31738 -76.93334 36553 ft 380 kts 148°
2026-04-24 22:16 4.29464 -76.92016 36324 ft 378 kts 148°
2026-04-24 22:16 4.27174 -76.90686 36120 ft 383 kts 148°
2026-04-24 22:16 4.24852 -76.89338 35905 ft 389 kts 148°
2026-04-24 22:16 4.22433 -76.88072 35645 ft 396 kts 154°
2026-04-24 22:17 4.19892 -76.86993 34968 ft 404 kts 156°
2026-04-24 22:17 4.17283 -76.85993 34358 ft 401 kts 158°
2026-04-24 22:17 4.14675 -76.85017 33741 ft 399 kts 158°
2026-04-24 22:17 4.12288 -76.84116 33117 ft 397 kts 158°
2026-04-24 22:18 4.09712 -76.83126 32451 ft 395 kts 157°
2026-04-24 22:18 4.07158 -76.82129 31818 ft 393 kts 157°
2026-04-24 22:18 4.04619 -76.81128 31182 ft 391 kts 157°
2026-04-24 22:18 4.02092 -76.80125 30562 ft 389 kts 156°
2026-04-24 22:19 3.99581 -76.79124 29978 ft 387 kts 156°
2026-04-24 22:19 3.97087 -76.78130 29261 ft 385 kts 157°
2026-04-24 22:19 3.94603 -76.77138 28568 ft 383 kts 157°
2026-04-24 22:19 3.92136 -76.76154 27886 ft 381 kts 157°
2026-04-24 22:20 3.89681 -76.75175 27219 ft 379 kts 157°
2026-04-24 22:20 3.87237 -76.74200 26549 ft 377 kts 157°
2026-04-24 22:20 3.85151 -76.73367 26019 ft 375 kts 157°
2026-04-24 22:21 3.84799 -76.73226 25929 ft 375 kts 157°
2026-04-24 22:21 3.82414 -76.72277 25733 ft 360 kts 157°
2026-04-24 22:22 3.80108 -76.71359 25160 ft 359 kts 156°
2026-04-24 22:22 3.77776 -76.70428 24499 ft 362 kts 158°
2026-04-24 22:22 3.75429 -76.69492 23860 ft 365 kts 158°
2026-04-24 22:22 3.73058 -76.68546 23139 ft 368 kts 158°
2026-04-24 22:23 3.70673 -76.67596 22409 ft 370 kts 158°
2026-04-24 22:23 3.68278 -76.66641 21679 ft 370 kts 158°
2026-04-24 22:23 3.65881 -76.65686 20959 ft 371 kts 159°
2026-04-24 22:23 3.63478 -76.64728 20246 ft 371 kts 159°
2026-04-24 22:24 3.61075 -76.63771 19559 ft 372 kts 160°
2026-04-24 22:24 3.58795 -76.62862 18917 ft 371 kts 159°
2026-04-24 22:24 3.56397 -76.61906 18256 ft 370 kts 160°
2026-04-24 22:24 3.54000 -76.60952 17502 ft 369 kts 160°
2026-04-24 22:25 3.51647 -76.60020 16759 ft 368 kts 161°
2026-04-24 22:25 3.49183 -76.59393 16041 ft 364 kts 173°
2026-04-24 22:25 3.46685 -76.59061 15327 ft 361 kts 175°
2026-04-24 22:25 3.44446 -76.58800 14728 ft 358 kts 175°
2026-04-24 22:26 3.41957 -76.58513 14090 ft 362 kts 174°
2026-04-24 22:26 3.39537 -76.58172 14043 ft 338 kts 173°
2026-04-24 22:26 3.37339 -76.57847 14255 ft 303 kts 174°
2026-04-24 22:26 3.35320 -76.57550 14100 ft 283 kts 174°
2026-04-24 22:27 3.33437 -76.57276 13971 ft 264 kts 174°
2026-04-24 22:27 3.31670 -76.57020 13854 ft 247 kts 174°
2026-04-24 22:27 3.30006 -76.56779 13609 ft 237 kts 175°
2026-04-24 22:27 3.28394 -76.56468 13346 ft 238 kts 160°
2026-04-24 22:28 3.27113 -76.55430 13091 ft 243 kts 123°
2026-04-24 22:28 3.26618 -76.53830 12864 ft 243 kts 94°
2026-04-24 22:28 3.26578 -76.52153 12645 ft 246 kts 90°
2026-04-24 22:28 3.26597 -76.50431 12416 ft 248 kts 89°
2026-04-24 22:29 3.26639 -76.47006 11937 ft 245 kts 90°
2026-04-24 22:29 3.26659 -76.45319 11675 ft 240 kts 84°
2026-04-24 22:29 3.27195 -76.43785 11405 ft 233 kts 51°
2026-04-24 22:30 3.28459 -76.42847 11160 ft 227 kts 14°
2026-04-24 22:30 3.29989 -76.42534 10981 ft 224 kts 11°
2026-04-24 22:30 3.31514 -76.42207 10768 ft 221 kts 11°
2026-04-24 22:30 3.33002 -76.41912 10533 ft 214 kts 10°
2026-04-24 22:31 3.34432 -76.41646 10283 ft 210 kts
2026-04-24 22:31 3.35878 -76.41388 10047 ft 207 kts
2026-04-24 22:31 3.37268 -76.41146 9811 ft 204 kts
2026-04-24 22:31 3.38672 -76.40901 9475 ft 200 kts
2026-04-24 22:32 3.40000 -76.40669 9303 ft 181 kts
2026-04-24 22:32 3.41185 -76.40445 8816 ft 175 kts 11°
2026-04-24 22:32 3.42440 -76.40215 7769 ft 194 kts
2026-04-24 22:32 3.43892 -76.40005 6503 ft 220 kts
2026-04-24 22:33 3.45370 -76.39704 5685 ft 214 kts 15°
2026-04-24 22:33 3.46815 -76.39404 4880 ft 209 kts
2026-04-24 22:33 3.48263 -76.39254 4018 ft 207 kts
2026-04-24 22:33 3.49574 -76.38975 3737 ft 179 kts 24°
2026-04-24 22:34 3.50677 -76.38673 3651 ft 158 kts
2026-04-24 22:34 3.51749 -76.38584 3417 ft 150 kts
2026-04-24 22:34 3.52739 -76.38440 3252 ft 139 kts
2026-04-24 22:34 3.53655 -76.38277 3164 ft 124 kts
2026-04-24 22:35 3.54373 -76.38161 3164 ft 72 kts 10°
2026-04-24 22:35 3.54592 -76.38166 3165 ft 20 kts 294°
2026-04-24 22:35 3.54605 -76.38219 3166 ft 0 kts 281°
2026-04-24 22:38 3.54608 -76.38238 3165 ft 5 kts 272°
2026-04-24 22:38 3.54592 -76.38275 3166 ft 8 kts 227°
2026-04-24 22:39 3.54519 -76.38297 3165 ft 15 kts 190°
2026-04-24 22:39 3.54413 -76.38316 3164 ft 15 kts 190°
2026-04-24 22:39 3.54310 -76.38334 3164 ft 15 kts 190°
2026-04-24 22:39 3.54211 -76.38353 3166 ft 14 kts 190°
2026-04-24 22:40 3.54111 -76.38372 3163 ft 14 kts 194°
2026-04-24 22:40 3.54031 -76.38424 3162 ft 14 kts 229°
2026-04-24 22:40 3.53959 -76.38485 3162 ft 13 kts 218°
2026-04-24 22:40 3.53889 -76.38542 3162 ft 13 kts 221°
2026-04-24 22:41 3.53831 -76.38593 3161 ft 10 kts 221°
2026-04-24 22:41 3.53780 -76.38626 3163 ft 5 kts 199°
2026-04-24 22:41 3.53748 -76.38633 3163 ft 5 kts 189°
2026-04-24 22:41 3.53737 -76.38635 3161 ft 0 kts 190°